Location: Oak Glen
(34.0495°N, 116.9470°E)
Time: 05:43:48
(UTC-07:00)

ISS - Pass Details

Date: 13 October 2017
Orbit: 401 x 408 km, 51.6° (Epoch: 20 October)

Event Time Altitude Azimuth Distance (km) Brightness Sun altitude
Rises 03:23:01 0° 328° (NNW) 2,320 0.4 -9.5°
Reaches altitude 10° 03:25:47 10° 354° (N) 1,459 -1.0 -10.1°
Maximum altitude 03:27:44 15° 30° (NNE) 1,208 -1.7 -10.5°
Enters shadow 03:28:57 13° 55° (NE) 1,311 -1.8 -10.7°
